Location: *
(46.0770°N, 1.6444°E)
Time: 09:50:15
(UTC+00:00)

Meteor 2-15 - Pass Details

Date: 16 September 2019
Orbit: 936 x 956 km, 82.5° (Epoch: 22 October)

Event Time Altitude Azimuth Distance (km) Brightness Sun altitude
Rises 18:52:51 0° 180° (S) 3,613 7.3 -9.3°
Reaches altitude 10° 18:55:20 10° 178° (S) 2,674 6.6 -9.7°
Maximum altitude 19:01:25 72° 95° (E) 1,007 4.4 -10.7°
Drops below altitude 10° 19:07:34 10° 13° (NNE) 2,697 6.9 -11.7°
Sets 19:10:05 0° 12° (NNE) 3,647 7.6 -12.1°
